Location: Las Vegas
(36.1750°N, 115.1360°W)
Time: 11:48:23
(UTC-07:00)

Amateur Radio Satellites - All Passes

Search period start: 24 October 2014 11:18
Search period end: 25 October 2014 11:18
Location: Las Vegas, 36.1750°N, 115.1360°W

Satellite Date Start Highest point End Downlink Frequencies (MHz)
Time Altitude Azimuth
KITSAT 1 24 Oct 11:30:03 11:37:36 46° 110° (ESE) 11:45:11 435.175 FM
ISS 24 Oct 11:41:13 11:43:51 22° 130° (SE) 11:46:30 145.800 FM
PANSAT 24 Oct 11:42:33 11:44:30 14° 198° (SSW) 11:46:28 not established
Sapphire 24 Oct 11:44:03 11:46:01 12° 45° (NE) 11:47:59 437.095 MHz 1200 baud AX-25 AFSK
FUNcube-1 24 Oct 11:44:21 11:48:00 28° 289° (WNW) 11:51:35 145.950 - 145.970 MHz USB
Oscar 11 24 Oct 11:49:39 11:51:03 11° 295° (WNW) 11:52:27 145.825 FM, Beacon 2401.500 USB
PCSat 24 Oct 12:05:16 12:09:05 19° 50° (NE) 12:12:52 145.825 MHz
Oscar 16 24 Oct 12:30:51 12:34:55 24° 67° (ENE) 12:39:00 437.025 USB, Beacon 2401.1428
AO-Echo 24 Oct 12:32:32 12:33:44 11° 61° (ENE) 12:34:56 ?
SO-50 24 Oct 12:43:14 12:47:40 72° 118° (ESE) 12:52:15 436.795 FM
Uribyol 2 24 Oct 12:50:52 12:53:56 16° 64° (ENE) 12:57:00 436.500 FM
ITAMSAT 1 24 Oct 12:56:35 12:59:50 17° 64° (ENE) 13:03:05 435.822 SSB
JAS-1B 24 Oct 13:02:27 13:08:04 41° 70° (ENE) 13:13:20 435.800 - 435.900 CW/SSB
Gurwin Techsat 1B 24 Oct 13:15:10 13:17:29 13° 62° (ENE) 13:19:47 435.225 FM
ISS 24 Oct 13:17:24 13:20:25 32° 325° (NW) 13:23:27 145.800 FM
Oscar 19 24 Oct 13:23:05 13:28:13 78° 75° (ENE) 13:33:23 437.125 CW, 437.150 USB
Sapphire 24 Oct 13:24:51 13:30:19 80° 63° (ENE) 13:35:44 437.095 MHz 1200 baud AX-25 AFSK
KITSAT 1 24 Oct 13:25:39 13:33:03 39° 308° (NW) 13:40:30 435.175 FM
TMSAT-1 24 Oct 13:27:01 13:29:00 12° 62° (ENE) 13:30:59 436.925 FM
AO-27 24 Oct 13:40:05 13:45:01 45° 71° (ENE) 13:49:59 436.795 MHz FM
PCSat 24 Oct 13:47:33 13:52:53 59° 247° (WSW) 13:58:11 145.825 MHz
AO-Echo 24 Oct 14:06:53 14:11:44 78° 258° (WSW) 14:16:46 ?
UOSAT-12 24 Oct 14:08:59 14:13:23 47° 115° (ESE) 14:17:54 437.025 FM, 437.400 FM
Oscar 16 24 Oct 14:09:20 14:14:03 36° 262° (W) 14:18:47 437.025 USB, Beacon 2401.1428
AO-7 24 Oct 14:22:01 14:27:28 20° 55° (NE) 14:32:54 29.400 - 29.500 MHz
SO-50 24 Oct 14:26:28 14:28:45 14° 316° (NW) 14:31:04 436.795 FM
Uribyol 2 24 Oct 14:27:45 14:32:52 58° 259° (W) 14:38:02 436.500 FM
ITAMSAT 1 24 Oct 14:33:45 14:38:50 54° 259° (W) 14:43:57 435.822 SSB
Gurwin Techsat 1B 24 Oct 14:51:28 14:56:46 74° 258° (WSW) 15:02:05 435.225 FM
JAS-1B 24 Oct 14:54:19 14:58:53 22° 264° (W) 15:03:14 435.800 - 435.900 CW/SSB
TMSAT-1 24 Oct 15:02:54 15:08:12 79° 257° (WSW) 15:13:32 436.925 FM
Oscar 19 24 Oct 15:07:44 15:08:03 10° 270° (W) 15:08:23 437.125 CW, 437.150 USB
Sapphire 24 Oct 15:11:29 15:12:58 11° 258° (WSW) 15:14:27 437.095 MHz 1200 baud AX-25 AFSK
AO-27 24 Oct 15:21:05 15:24:42 19° 266° (W) 15:28:20 436.795 MHz FM
Saudisat 1A 24 Oct 15:43:34 15:46:57 21° 50° (NE) 15:50:19 436.775 MHz
UOSAT-12 24 Oct 15:50:24 15:53:47 19° 312° (NW) 15:57:12 437.025 FM, 437.400 FM
Uosat F 24 Oct 15:51:40 15:56:24 43° 71° (ENE) 16:01:10 435.120 FM
AO-7 24 Oct 16:10:54 16:19:12 86° 253° (WSW) 16:27:32 29.400 - 29.500 MHz
JAS-2 24 Oct 16:48:06 16:53:29 39° 68° (ENE) 16:59:32 435.800 - 435.900 CW/SSB, 435.910 FM
Hamsat 24 Oct 17:13:17 17:17:06 34° 73° (ENE) 17:20:54 145.90 MHz
Saudisat 1A 24 Oct 17:22:32 17:26:37 37° 246° (WSW) 17:30:40 436.775 MHz
Uosat F 24 Oct 17:31:55 17:35:21 18° 266° (W) 17:38:48 435.120 FM
OPAL 24 Oct 17:35:01 17:39:46 44° 101° (ESE) 17:44:27 ?
AO-40 24 Oct 17:56:52 22:09:09 43° 189° (S) 03:52:33 Beacon 2401.320
AO-7 24 Oct 18:08:53 18:12:55 14° 269° (W) 18:16:59 29.400 - 29.500 MHz
ISS 24 Oct 18:12:12 18:14:07 14° 25° (NNE) 18:16:01 145.800 FM
JAS-2 24 Oct 18:33:47 18:38:40 28° 267° (W) 18:44:06 435.800 - 435.900 CW/SSB, 435.910 FM
SO-67 24 Oct 18:34:59 18:38:03 32° 74° (ENE) 18:41:09 435.3500 MHz FM
Hamsat 24 Oct 18:50:27 18:53:07 16° 266° (W) 18:55:46 145.90 MHz
HO-68 24 Oct 19:06:44 19:10:27 15° 56° (NE) 19:14:09 435.675 MHz FM
OPAL 24 Oct 19:14:52 19:18:17 19° 297° (WNW) 19:21:42 ?
STRAND 1 24 Oct 19:18:59 19:24:05 59° 101° (E) 19:29:07 ?
KITSAT 1 24 Oct 19:27:08 19:31:54 16° 37° (NE) 19:36:38 435.175 FM
ISS 24 Oct 19:47:51 19:51:11 84° 222° (SW) 19:54:31 145.800 FM
SO-67 24 Oct 20:10:10 20:11:07 11° 268° (W) 20:12:04 435.3500 MHz FM
UKube-1 24 Oct 20:24:15 20:26:15 13° 65° (ENE) 20:28:16 145.840 MHz, 145.915 MHz
RS-15 24 Oct 20:45:35 20:54:37 30° 105° (ESE) 21:03:30 29.354 - 29.394 USB, Beacon 29.352 USB
HO-68 24 Oct 20:49:56 20:57:05 86° 73° (ENE) 21:04:18 435.675 MHz FM
STRAND 1 24 Oct 20:59:48 21:02:43 15° 296° (WNW) 21:05:39 ?
FUNcube-1 24 Oct 21:03:18 21:05:34 14° 66° (ENE) 21:07:50 145.950 - 145.970 MHz USB
Oscar 11 24 Oct 21:03:45 21:07:34 31° 71° (ENE) 21:11:23 145.825 FM, Beacon 2401.500 USB
SO-50 24 Oct 21:17:26 21:21:49 33° 53° (NE) 21:26:13 436.795 FM
KITSAT 1 24 Oct 21:20:49 21:28:53 68° 60° (ENE) 21:36:54 435.175 FM
ZACube-1 24 Oct 21:52:19 21:56:44 48° 74° (ENE) 22:01:06 437.345 MHz
UKube-1 24 Oct 21:57:45 22:01:58 50° 260° (W) 22:06:14 145.840 MHz, 145.915 MHz
FUNcube-1 24 Oct 22:36:59 22:41:28 53° 260° (W) 22:45:56 145.950 - 145.970 MHz USB
Oscar 11 24 Oct 22:40:40 22:43:46 19° 266° (W) 22:46:52 145.825 FM, Beacon 2401.500 USB
UOSAT-12 24 Oct 22:41:36 22:45:16 22° 49° (NE) 22:48:53 437.025 FM, 437.400 FM
HO-68 24 Oct 22:41:58 22:45:31 14° 269° (W) 22:49:06 435.675 MHz FM
RS-15 24 Oct 22:55:09 23:06:04 66° 304° (WNW) 23:16:57 29.354 - 29.394 USB, Beacon 29.352 USB
SO-50 24 Oct 22:58:10 23:02:15 27° 248° (WSW) 23:06:19 436.795 FM
KITSAT 1 24 Oct 23:17:36 23:23:31 23° 256° (WSW) 23:29:26 435.175 FM
MaSat-1 24 Oct 23:22:55 23:27:08 67° 112° (ESE) 23:30:58 437.345 MHz
ZACube-1 24 Oct 23:30:54 23:33:19 14° 268° (W) 23:35:43 437.345 MHz
UOSAT-12 25 Oct 00:21:10 00:25:33 40° 246° (WSW) 00:29:51 437.025 FM, 437.400 FM
JAS-1B 25 Oct 00:49:11 00:52:55 15° 94° (E) 00:56:56 435.800 - 435.900 CW/SSB
RS-15 25 Oct 01:13:32 01:21:03 20° 331° (NNW) 01:28:39 29.354 - 29.394 USB, Beacon 29.352 USB
Oscar 19 25 Oct 01:37:46 01:42:23 33° 97° (E) 01:46:58 437.125 CW, 437.150 USB
AO-27 25 Oct 01:56:40 02:00:28 20° 94° (E) 02:04:15 436.795 MHz FM
AO-Echo 25 Oct 02:16:44 02:21:48 44° 99° (E) 02:26:50 ?
Oscar 16 25 Oct 02:23:12 02:28:20 82° 284° (WNW) 02:33:27 437.025 USB, Beacon 2401.1428
Sapphire 25 Oct 02:23:32 02:26:24 15° 103° (ESE) 02:29:15 437.095 MHz 1200 baud AX-25 AFSK
JAS-1B 25 Oct 02:36:57 02:43:48 87° 285° (WNW) 02:52:03 435.800 - 435.900 CW/SSB
Uribyol 2 25 Oct 02:43:11 02:48:21 63° 102° (ESE) 02:53:28 436.500 FM
PCSat 25 Oct 02:44:15 02:48:39 26° 107° (ESE) 02:53:05 145.825 MHz
ITAMSAT 1 25 Oct 02:49:15 02:54:28 68° 102° (ESE) 02:59:38 435.822 SSB
Gurwin Techsat 1B 25 Oct 03:10:29 03:15:43 56° 101° (E) 03:20:55 435.225 FM
Oscar 19 25 Oct 03:17:24 03:21:32 25° 292° (WNW) 03:25:39 437.125 CW, 437.150 USB
TMSAT-1 25 Oct 03:21:35 03:26:46 52° 100° (E) 03:31:55 436.925 FM
RS-15 25 Oct 03:35:04 03:39:55 13° 9° (N) 03:44:49 29.354 - 29.394 USB, Beacon 29.352 USB
AO-27 25 Oct 03:35:12 03:40:07 43° 289° (WNW) 03:45:00 436.795 MHz FM
AO-Echo 25 Oct 03:56:16 04:00:12 22° 294° (WNW) 04:04:08 ?
Uosat F 25 Oct 04:03:14 04:06:25 17° 93° (E) 04:09:34 435.120 FM
Sapphire 25 Oct 04:03:51 04:09:12 64° 299° (WNW) 04:14:35 437.095 MHz 1200 baud AX-25 AFSK
AO-7 25 Oct 04:15:53 04:23:30 38° 99° (E) 04:31:04 29.400 - 29.500 MHz
Uribyol 2 25 Oct 04:24:27 04:27:15 15° 297° (WNW) 04:30:02 436.500 FM
PCSat 25 Oct 04:26:51 04:31:51 38° 303° (WNW) 04:36:53 145.825 MHz
JAS-1B 25 Oct 04:30:26 04:33:46 14° 299° (WNW) 04:37:20 435.800 - 435.900 CW/SSB
ITAMSAT 1 25 Oct 04:30:46 04:33:20 14° 297° (WNW) 04:35:53 435.822 SSB
OPAL 25 Oct 04:47:09 04:52:13 61° 72° (ENE) 04:57:15 ?
Gurwin Techsat 1B 25 Oct 04:51:53 04:55:11 17° 296° (WNW) 04:58:28 435.225 FM
TMSAT-1 25 Oct 05:02:46 05:06:13 18° 295° (WNW) 05:09:41 436.925 FM
Uosat F 25 Oct 05:40:33 05:45:25 48° 288° (WNW) 05:50:14 435.120 FM
JAS-2 25 Oct 05:43:42 05:51:19 52° 99° (E) 05:58:47 435.800 - 435.900 CW/SSB, 435.910 FM
RS-15 25 Oct 05:47:36 05:57:24 33° 43° (NE) 06:07:27 29.354 - 29.394 USB, Beacon 29.352 USB
AO-7 25 Oct 06:08:32 06:16:15 44° 296° (WNW) 06:23:58 29.400 - 29.500 MHz
PANSAT 25 Oct 06:18:34 06:20:10 12° 161° (SSE) 06:21:46 not established
OPAL 25 Oct 06:28:51 06:31:24 14° 266° (W) 06:33:58 ?
STRAND 1 25 Oct 06:32:11 06:37:15 64° 74° (ENE) 06:42:21 ?
Hamsat 25 Oct 06:36:47 06:40:59 78° 283° (WNW) 06:45:12 145.90 MHz
Saudisat 1A 25 Oct 07:25:49 07:30:12 78° 300° (WNW) 07:34:37 436.775 MHz
JAS-2 25 Oct 07:29:14 07:35:54 32° 295° (WNW) 07:42:33 435.800 - 435.900 CW/SSB, 435.910 FM
SO-67 25 Oct 07:33:12 07:36:36 56° 100° (E) 07:39:59 435.3500 MHz FM
PANSAT 25 Oct 07:56:39 07:59:44 23° 173° (S) 08:02:49 not established
RS-15 25 Oct 07:59:32 08:10:43 74° 245° (WSW) 08:22:24 29.354 - 29.394 USB, Beacon 29.352 USB
STRAND 1 25 Oct 08:14:40 08:16:50 13° 269° (W) 08:19:00 ?
HO-68 25 Oct 08:22:24 08:27:04 18° 93° (E) 08:31:41 435.675 MHz FM
MaSat-1 25 Oct 09:11:45 09:14:15 52° 65° (ENE) 09:16:35 437.345 MHz
Oscar 10/S400 25 Oct 09:12:50 00:02:39 42° 224° (SW) 09:54:38 145.825 - 145.975 CW/USB, Beacon 145.810 USB
PANSAT 25 Oct 09:36:18 09:39:25 24° 186° (S) 09:42:31 not established
ZACube-1 25 Oct 09:47:42 09:48:01 10° 91° (E) 09:48:19 437.345 MHz
UKube-1 25 Oct 09:48:43 09:52:38 32° 98° (E) 09:56:31 145.840 MHz, 145.915 MHz
HO-68 25 Oct 10:08:08 10:15:18 73° 288° (WNW) 10:22:26 435.675 MHz FM
RS-15 25 Oct 10:16:26 10:21:11 14° 262° (W) 10:26:01 29.354 - 29.394 USB, Beacon 29.352 USB
FUNcube-1 25 Oct 10:29:09 10:33:00 34° 97° (E) 10:36:47 145.950 - 145.970 MHz USB
Oscar 11 25 Oct 10:29:24 10:33:44 87° 283° (WNW) 10:38:02 145.825 FM, Beacon 2401.500 USB
ISS 25 Oct 10:53:36 10:54:52 12° 127° (SE) 10:56:07 145.800 FM
